Location: Le Rocchette
(44.3500°N, 7.8333°E)
Time: 02:34:31
(UTC+00:00)

Cosmos 1151 Rocket - Pass Details

Date: 17 November 2019
Orbit: 593 x 615 km, 82.5° (Epoch: 05 December)

Event Time Altitude Azimuth Distance (km) Brightness Sun altitude
Rises 04:22:52 0° 357° (N) 2,894 6.4 -22.0°
Reaches altitude 10° 04:25:12 10° 4° (N) 1,982 5.6 -21.6°
Maximum altitude 04:29:23 43° 77° (ENE) 862 4.2 -20.9°
Drops below altitude 10° 04:33:31 10° 149° (SSE) 1,955 6.1 -20.1°
Sets 04:35:48 0° 156° (SSE) 2,851 6.9 -19.7°
